This demonstration page uses our WeatherBlox Daily Observations layout. Learn more.

Left ArrowRight Arrow

39.08367, -84.50855

Hourly Observations for March 6, 2021

Temp ( °F °C ) Dew Point ( °F °C ) Humidity (%) Winds ( mph kmh ) Pressure ( in mb ) Visibility ( mi km ) Precip ( " mm )
12:53 am 00:53 Clear 36 2.2 21 -6.1 55 55 NNW 8 13 30.29 1026 10 16.0934 0 0
1:53 am 01:53 Clear 34 1.1 20 -6.7 56 56 NNW 7 11 30.3 1026 10 16.0934 0 0
2:53 am 02:53 Clear 32 0 19 -7.2 59 59 NW 6 9 30.31 1026 10 16.0934 0 0
3:53 am 03:53 Clear 31 -0.6 20 -6.7 64 64 Calm 30.31 1026 10 16.0934 0 0
4:53 am 04:53 Clear 28 -2.2 19 -7.2 69 69 Calm 30.31 1027 10 16.0934 0 0
5:53 am 05:53 Clear 29 -1.7 19 -7.2 66 66 Calm 30.33 1027 10 16.0934 0 0
6:53 am 06:53 Clear 29 -1.7 19 -7.2 66 66 Calm 30.34 1028 10 16.0934 0 0
7:53 am 07:53 Sunny 29 -1.7 22 -5.6 75 75 Calm 30.36 1028 10 16.0934 0 0
8:53 am 08:53 Sunny 34 1.1 19 -7.2 54 54 N 8 13 30.38 1029 10 16.0934 0 0
9:53 am 09:53 Sunny 37 2.8 18 -7.8 46 46 N 9 15 30.38 1029 10 16.0934 0 0
10:53 am 10:53 Sunny 40 4.4 18 -7.8 41 41 VRB 3 6 30.38 1029 10 16.0934 0 0
11:53 am 11:53 Sunny 42 5.6 16 -8.9 35 35 NNW 8 13 30.37 1028 10 16.0934 0 0
12:53 pm 12:53 Sunny 44 6.7 17 -8.3 34 34 N 8 13 30.36 1028 10 16.0934 0 0
1:53 pm 13:53 Sunny 46 7.8 16 -8.9 30 30 SE 9 15 30.34 1027 10 16.0934 0 0
2:53 pm 14:53 Sunny 47 8.3 16 -8.9 29 29 NNW 9 15 30.32 1027 10 16.0934 0 0
3:53 pm 15:53 Sunny 48 8.9 15 -9.4 27 27 undefined N/A 30.32 1027 10 16.0934 0 0
4:53 pm 16:53 Sunny 47 8.3 14 -10 26 26 N 13 20 30.31 1026 10 16.0934 0 0
5:53 pm 17:53 Sunny 45 7.2 14 -10 29 29 WNW 6 9 30.3 1026 10 16.0934 0 0
6:53 pm 18:53 Clear 42 5.6 14 -10 32 32 NNW 6 9 30.3 1026 10 16.0934 0 0
7:53 pm 19:53 Clear 38 3.3 22 -5.6 52 52 Calm 30.32 1027 10 16.0934 0 0
8:53 pm 20:53 Clear 35 1.7 22 -5.6 59 59 Calm 30.33 1027 10 16.0934 0 0
9:53 pm 21:53 Clear 33 0.6 25 -3.9 72 72 Calm 30.32 1027 10 16.0934 0 0
10:53 pm 22:53 Clear 32 0 26 -3.3 79 79 Calm 30.31 1027 10 16.0934 0 0
11:53 pm 23:53 Clear 30 -1.1 24 -4.4 79 79 SSW 3 6 30.31 1027 10 16.0934 0 0

Powered by AerisWeather